Regional Weather Roundup
Issued by NWS Wakefield, VA

Home | Current Version | Previous Version | Graphics & Text | Print | Product List | Glossary On
Versions: 1 2 3 4 5 6 7 8 9 10 11 12 13 14 15 16 17 18 19 20 21 22 23 24 25 26 27 28 29 30 31 32 33 34 35 36 37 38 39 40 41 42 43 44 45 46 47 48 49 50
000
ASUS41 KAKQ 210510
RWRAKQ

REGIONAL WEATHER ROUNDUP
NATIONAL WEATHER SERVICE WAKEFIELD VA
100 AM EDT THU AUG 21 2014

Note: "fair" indicates few or no clouds below 12,000 feet with no
significant weather and/or obstructions to visibility. * = Denotes
station may not report precipitation (e.g., rain,snow,etc.),
thunder or fog.

VAZ042-051-052>054-056-210600-
NORTHERN VIRGINIA

CITY           SKY/WX    TMP DP  RH WIND       PRES   REMARKS
WASH NATIONAL  CLEAR     74  66  76 CALM      30.02F
DULLES         PTCLDY    65  64  97 E3        30.02F
FORT BELVOIR   CLEAR     67  66  97 CALM      30.02S
QUANTICO       CLEAR     71  67  87 NE3       30.01F
FREDERICKSBRG* PTCLDY    69  69 100 CALM      29.99F
STAFFORD*      FOG       66  66 100 CALM      30.04F VSB 1
WARRENTON      CLEAR     67  67 100 CALM      30.00F
CULPEPER*      FOG      N/A N/A N/A CALM      30.01F VSB 1/2
MANASSAS*      PTCLDY    66  66 100 CALM      30.01F
LEESBURG*      PTCLDY    66  66 100 CALM      30.03S
WINCHESTER     FOG       68  66  94 CALM      30.02F VSB 1/4
$$

VAZ048-049-060>072-079>083-210600-
CENTRAL AND SOUTH CENTRAL VIRGINIA...AND NORTH CENTRAL NORTH CAROLINA

CITY           SKY/WX    TMP DP  RH WIND       PRES   REMARKS
RICHMOND       CLOUDY    74  69  85 E5        30.00F
CHESTERFIELD*  CLOUDY    73  61  64 NW6       30.02F
HANOVER        MOCLDY    70  69  97 E3        30.02F FOG
TAPPAHANNOCK*  CLOUDY    73  67  83 CALM      30.03S
CHARLOTTSVILLE MOCLDY    67  67 100 NW3       30.02F FOG
ORANGE*        PTCLDY    68  64  88 CALM      30.02F FOG
LOUISA*        PTCLDY    70  66  88 CALM      29.99F FOG
FARMVILLE*     MOCLDY    70  70 100 S5        30.00S
SOUTH HILL*    PTCLDY    75  75 100 S6        30.07S FOG
ROANOKE RAPIDS PTCLDY    72  72 100 SW3       30.01S
RALEIGH        MOCLDY    74  70  87 CALM      30.02F
$$

VAZ088>098-210600-
SOUTHEAST VIRGINIA

CITY           SKY/WX    TMP DP  RH WIND       PRES   REMARKS
NORFOLK        MOCLDY    74  69  85 S5        30.01F
VIRGINIA BEACH MOCLDY    72  69  90 CALM      30.01F
NORFOLK NAVAL  MOCLDY    75  70  84 S5        30.02F
WEST POINT*    MOCLDY    75  71  86 SE3       30.02R
NEWPORT NEWS   MOCLDY    78  70  76 S3        30.01F
LANGLEY AFB    MOCLDY    75  73  95 S6        30.00F
FORT EUSTIS    CLOUDY    75  75 100 SE8       29.99F
WILLIAMSBURG*  CLOUDY    79  72  78 S12       30.01F
FRANKLIN*      MOCLDY    73  72  94 CALM      30.00F
WAKEFIELD      CLOUDY    74  70  87 CALM      30.00F
$$

VAZ020-022-025-037-045-210600-
WESTERN AND SOUTHWEST VIRGINIA

CITY           SKY/WX    TMP DP  RH WIND       PRES   REMARKS
STAUNTON*      PTCLDY    66  64  94 CALM      30.07F FOG
HOT SPRINGS VA MOCLDY    65  61  86 W10       30.20F
LYNCHBURG      CLOUDY    73  72  96 NE3       30.05S FOG
DANVILLE       PTCLDY    73  70  90 E3        30.02F
MARTINSVILLE   FOG       70  69  99 E3        30.06S VSB 1
ROANOKE        PTCLDY    72  67  84 NE3       30.06F
BLACKSBURG     MOCLDY    68  68 100 CALM      30.12F FOG
DUBLIN*        MOCLDY    69  68  97 CALM      30.12S
MARION*        CLOUDY    67  65  91 W9        30.18R
HILLSVILLE*    MOCLDY    68  65  90 N3        30.14R
RICHLANDS*     CLOUDY    68  66  91 SW7       30.17R
WISE*          CLOUDY    64  64 100 SW13      30.18S
ABINGDON*      CLOUDY    69  68  98 W7        30.15S
$$

MDZ021>025-VAZ099-100-210600-
SOUTHERN MARYLAND AND THE DELMARVA PENINSULA

CITY           SKY/WX    TMP DP  RH WIND       PRES   REMARKS
PATUXENT RIVER NOT AVBL
BAY BRIDGE APT   N/A     72  63  73 SE5       30.02F
LEONARDTOWN    MOCLDY    70  68  94 CALM      30.03F
DOVER          CLOUDY    70  66  87 SE3       30.02F
GEORGETOWN     MOCLDY    69  64  84 E3        30.04F
EASTON         MOCLDY    71  66  84 CALM      30.06F
CAMBRIDGE      CLOUDY    72  64  78 E5        30.02F
SALISBURY      PTCLDY    68  64  87 E3        30.02F
OCEAN CITY     MOCLDY    73  67  81 VRB3      30.03S
WALLOPS ISLAND CLEAR     73  69  87 SE6       30.03F
ACCOMACK*      MOCLDY    70  68  94 SE3       30.02F
$$

NCZ012>017-030>032-210600-
EASTERN NORTH CAROLINA

CITY           SKY/WX    TMP DP  RH WIND       PRES   REMARKS
ELIZABETH CITY CLEAR     75  71  87 SE3       30.01F FOG
AHOSKIE*       PTCLDY    73  72  96 S3        30.01F
EDENTON*       CLEAR     76  73  92 SE6       30.01F
CURRITUCK*     CLEAR     73  67  83 CALM      30.02F
KILL DEVIL HLS CLEAR     74  71  91 SE5       30.00F
MANTEO         CLEAR     73  72  94 SE6       30.02F
CAPE HATTERAS  PTCLDY    73  72  96 CALM      30.04S
GOLDSBORO      PTCLDY    76  76  98 S3        30.00F
WASHINGTON     CLEAR     74  73  96 CALM      30.02F
GREENVILLE     PTCLDY    77  75  94 CALM      30.03F
NEW BERN       CLEAR     77  73  87 CALM      30.03F
WILMINGTON     CLEAR     76  74  93 CALM      30.02F
$$

VAZ048-210600-
ELSEWHERE

CITY           SKY/WX    TMP DP  RH WIND       PRES   REMARKS
HARRISBURG PA  MOCLDY    72  67  84 S5        30.02R
BALTIMORE      PTCLDY    68  65  90 CALM      30.02S
ANNAPOLIS      PTCLDY    75  67  76 SE10      30.01F
ANDREWS AFB    CLEAR     69  64  85 N3        30.02F
WILMINGTON DE  CLOUDY    73  66  78 S6        30.04S
PHILADELPHIA   CLOUDY    73  63  70 S6        30.04S
WILDWOOD NJ*   CLOUDY    70  63  78 N3        30.05F
ATLANTIC CITY  CLOUDY    67  63  87 CALM      30.05R
HENDERSON NC   HVY RAIN  71  69  92 W3        30.06S
GREENSBORO     MOCLDY    75  70  84 CALM      30.03F
ROCKY MOUNT    PTCLDY    73  71  93 CALM      30.02F FOG
FAYETTEVILLE   PTCLDY    77  73  87 S3        30.01F
CHARLOTTE      CLOUDY    77  68  73 CALM      30.04F
$$

VAZ100-210600-
MARINE

STATION/POSITION TIME  TEMP    WIND        PRES    WAVE   SWELL
                       AIR SEA DIR/SP/G            HT/PER HT/PER
                 (UTC) (F)     (DEG/KT/KT) (MB)    (FT/S) (FT/S)
44066 TX TWR #4  0500   71 73   30/  8/ 10 1016.5R   3/ 6   3/ 6
CAPE MAY NJ      0500   72 80  100/  2/  3 1016.7F
LEWES DE         0500   71 74   CALM  /  1 1016.8F
15NM E FENWICK I 0500   74 75              1017.0F   3/ 6
OCEAN-CITY-INLET 0500   74 76  170/  7/  9 1016.6F
WACHAPREAGUE VA  0500   74 81  120/  4/  4 1016.6F
THOMAS POINT MD  0500   74 78  140/ 12/ 14 1016.7F
GOOSES REEF MD   0500   75     150/ 12/ 12 1016.8S
COVE POINT MD    0500   74     180/ 15/ 16 1016.3F
SOLOMONS ISLAND  0500      80                N/A
BISHOPS HEAD MD  0500   73 79  130/  6/  7 1016.5R
PINEY POINT MD   0500          160/  7/  8   N/A
POTOMAC MD       0500   76     170/ 12/ 14 1015.5F
CAMBRIDGE MD     0500   72 78  130/  2/  4 1016.5F
LEWISETTA VA     0500   74 79   CALM  /  1 1015.9S
RAPPAHANNOCK LGT 0500          110/  7/  8 1016.8F
STINGRAY PT      0500   77     170/ 12/ 14 1016.9S
YORK RVR RNG VA  0500   77     180/ 12/ 13 1015.5S
YORKTOWN VA      0500   75 80  160/  4/  6 1015.7F
JAMESTOWN VA     0500   75     180/ 10/ 12   N/A
DOMINION TERM VA 0500   76     150/  9/ 10 1016.2F
KIPTOPEKE VA     0500      81  160/  9/ 11   N/A
CHES BAY BRIDGE  0500   76 78  140/  6/  7 1015.8F
CAPE HENRY VA    0500   74     170/  5/  7 1015.2F
CHESAPEAKE LGHT  0400   76     180/ 10/ 11 1017.8R
WILLOUBY STN VA  0500   76      90/  2/  4 1014.9F
S CRANEY ISL VA  0500          150/  8/ 10 1015.9F
CAPE HENRY BUOY  0500      77                N/A     2/ 6
1ST LANDING BUOY 0500   76     170/  8/ 10 1016.1F
CAPE CHARLES BUO 0500      77                N/A     2/ 6   2/ 6
OFFSHORE WE BUOY 0500      77                N/A     3/ 6   2/ 6
64NM E OF VA BCH 0500   77 78  180/  6/  8 1016.5S   3/ 7   3/ 7
DUCK PIER NC     0500   77 79  140/  9/ 11 1015.5F
44056 DUCK FRF   0500                        N/A     2/ 5
OREGON INLET NC  0500   76 81  130/  4/  4 1016.7F
HATTERAS NC      0500   79 81  130/  2/  3 1017.5F
DIAMOND SHLS NC  0500   78     290/  2/  4 1017.2R   2/ 9   2/ 9
CAPE LOOKOUT NC  0400   80     240/  4/  4 1017.0R
$$


USA.gov is the U.S. government's official web portal to all federal, state and local government web resources and services.